Location: Gaast
(52.9002°N, 5.8891°E)
Time: 07:00:43
(UTC+00:00)

Cosmos 2058 - Pass Details

Date: 18 November 2025
Orbit: 529 x 540 km, 82.5° (Epoch: 11 December)

Event Time Altitude Azimuth Distance (km) Brightness Sun altitude
Rises 17:26:16 0° 348° (NNW) 2,708 6.4 -16.0°
Reaches altitude 10° 17:28:25 10° 348° (NNW) 1,814 5.5 -16.4°
Maximum altitude 17:32:25 87° 258° (WSW) 550 2.7 -16.9°
Drops below altitude 10° 17:36:24 10° 172° (S) 1,804 5.5 -17.5°
Sets 17:38:32 0° 172° (S) 2,693 6.4 -17.9°
